Regional Weather Roundup
Issued by NWS

Home | Current Version | Previous Version | Text Only | Print | Product List | Glossary Off
Versions: 1 2 3 4 5 6 7 8 9 10 11 12 13 14 15 16 17 18 19 20 21 22 23 24 25 26 27 28 29 30 31 32 33 34 35 36 37 38 39 40 41 42 43 44 45 46 47 48 49 50

000
ASUS43 KMKX 311021
RWRWI

WISCONSIN REGIONAL WEATHER ROUNDUP
NATIONAL WEATHER SERVICE MILWAUKEE/SULLIVAN WI
500 AM CDT MON AUG 31 2015

NOTE: "FAIR" INDICATES FEW OR NO CLOUDS BELOW 12,000 FEET WITH NO
SIGNIFICANT WEATHER AND/OR OBSTRUCTIONS TO VISIBILITY.

WIZ001-002-006>008-014>016-023>028-311100-
NORTHWEST WISCONSIN

CITY           SKY/WX    TMP DP  RH WIND       PRES   REMARKS
SUPERIOR ARPT  FOG       60  60  99 CALM      29.88S VSB 3/4
ASHLAND        PTCLDY    63  63 100 S6        29.92S
HAYWARD        CLOUDY    65  63  93 S9        29.95S
SIREN          CLEAR     65  64  96 S6        29.93S
CUMBERLAND     CLOUDY    63  61  94 S6        29.96S FOG
RICE LAKE      CLOUDY    63  62  95 S3        29.98S FOG
CHETEK         CLOUDY   N/A N/A N/A E5        29.98S HAZE
LADYSMITH      FOG       63  62  97 S3        30.00S VSB 1/2
EAU CLAIRE     CLEAR     59  58  96 S3        29.97S FOG
MENOMONIE      FOG       58  58  99 E3        29.98R VSB<1/4
NEW RICHMOND   CLEAR     62  62  99 S5        29.95S FOG
OSCEOLA        CLOUDY    64  64 100 S6        29.96S
$$

WIZ003>005-009-010-017-018-311100-
NORTH CENTRAL WISCONSIN

CITY           SKY/WX    TMP DP  RH WIND       PRES   REMARKS
MANITOWISH WTR CLOUDY    64  64 100 SW6       29.98F
ARBOR VITAE    CLOUDY    64  63  95 SW5       29.99F
WOODRUFF       CLOUDY    64  63  95 SW5       29.99F
RHINELANDER    CLOUDY    64  63  96 SW6       30.01F FOG
EAGLE RIVER    CLOUDY    63  63  99 SW8       30.00F
LAND O LAKES   CLOUDY    64  62  94 SW6       30.00S
PHILLIPS       CLOUDY    63  63 100 S3        29.99S FOG
TOMAHAWK       CLOUDY    63  62  97 CALM      30.02S FOG
MEDFORD        FOG       61  61 100 SW5       30.01S VSB 1/2
MERRILL        CLOUDY    63  63 100 W6        30.02R FOG
$$

WIZ029-030-035-036-043>047-311100-
CENTRAL WISCONSIN

CITY           SKY/WX    TMP DP  RH WIND       PRES   REMARKS
WAUSAU         CLOUDY    62  62 100 S3        30.00S FOG
MOSINEE        FOG       61  61 100 CALM      30.03R VSB 1/4
MARSHFIELD     FOG       61  58  90 S3        30.01F VSB<1/4
STEVENS POINT  FOG       60  60 100 SW3       30.02S VSB 1/4
WAUPACA        FOG       58  57  96 CALM      30.02S VSB 1/4
WAUTOMA        FOG       57  57 100 CALM      30.03S VSB 1/4
WISC RAPIDS    FOG       58  56  93 CALM      30.03S VSB 1/4
CAMP DOUGLAS   FOG       55  55 100 SE5       30.01S VSB 1
$$

WIZ011>013-019>022-031-037>040-048>050-311100-
NORTHEAST WISCONSIN

CITY           SKY/WX    TMP DP  RH WIND       PRES   REMARKS
ANTIGO         CLOUDY    62  62 100 W7        30.02S FOG
SHAWANO        FOG       62  61  95 SW3       30.00S VSB 1/4
OCONTO         CLEAR     60  60 100 SW3       29.99S
STURGEON BAY   CLEAR     64  61  88 W8        30.02R
GREEN BAY      FOG       62  61  96 S5        30.01F VSB 1/2
MANITOWOC      CLEAR     59  58  96 MISG      30.02S FOG
APPLETON       FOG       61  61 100 S5        30.01S VSB<1/4
CLINTONVILLE   FOG       57  57 100 CALM      30.01S VSB 1/4
OSHKOSH        FOG       57  57 100 S5        30.02S VSB 1
$$

WIZ032>034-041-042-053>061-311100-
SOUTHWEST WISCONSIN

CITY           SKY/WX    TMP DP  RH WIND       PRES   REMARKS
LA CROSSE      CLOUDY    65  63  93 SE8       29.99S
SPARTA         CLOUDY    55  55  97 CALM      30.02S
VIROQUA          N/A     63  63 100 CALM      30.03R
BOSCOBEL       FOG       60  59  96 CALM      30.02F VSB 1/4
PRAIRIE DU CHI FOG       59  58  96 CALM      30.01F VSB 1
PLATTEVILLE    CLEAR     59  59 100 SE3       30.04R
$$

WIZ056-057-062-063-064-067-068-311100-
SOUTH CENTRAL WISCONSIN

CITY           SKY/WX    TMP DP  RH WIND       PRES   REMARKS
REEDSBURG      MOCLDY    59  59 100 CALM      30.02S
BARABOO/DELLS  CLEAR     61  60  96 SW3       30.02S FOG
LONE ROCK      CLOUDY    59  58  96 CALM      30.03S
MINERAL POINT  CLEAR     63  61  94 S5        30.04S FOG
MADISON        PTCLDY    58  57  97 CALM      30.03S FOG
MIDDLETON      CLOUDY    56  56 100 CALM      30.04R VSB 1/4
WATERTOWN      FOG       55  55 100 CALM      30.03S VSB 1/2
MONROE         FOG       61  59  94 S5        30.04S VSB 1/2
JANESVILLE     FOG       57  55  94 CALM      30.04R VSB 1/4
$$

WIZ051-052-058>065-066-070>072-311100-
SOUTHEAST WISCONSIN

CITY           SKY/WX    TMP DP  RH WIND       PRES   REMARKS
MILWAUKEE      FOG       60  58  92 SW5       30.04R VSB 3/4
WAUKESHA       PTCLDY    57  55  94 CALM      30.05R FOG
MILWAUKEE/TIMM   N/A     59  55  88 CALM      30.05R FOG
RACINE         FOG       62  60  93 SW3       30.06R VSB 3/4
BURLINGTON     FOG       55  55 100 CALM      30.04S VSB 1/4
KENOSHA        FOG       61  60  97 SW3       30.05R VSB 1/4
FOND DU LAC    FOG       59  58  96 S5        30.03S VSB 1
SHEBOYGAN      CLEAR     58  58 100 SW3       30.02S FOG
WEST BEND      PTCLDY    55  54  94 CALM      30.03S FOG
JUNEAU         FOG       57  57  99 CALM      30.05R VSB<1/4
$$

LSZ147-162-311100-
LAKE SUPERIOR

STATION/POSITION TIME  TEMP    WIND        PRES    WAVE
                       AIR SEA DIR/SP/G            HT/PER
                 (UTC) (F)     (DEG/KT/KT) (MB)    (FT/S)
W MID LAKE BUOY  0950   60 54  210/ 10/ 12 1012.1R   1/ 3
DEVILS ISLAND    1000   65     200/  7/  9 1012.0R
PORT WING        0900   67     190/  7/  9 1012.2S
SAXON HARBOR     0940   67     190/  7/ 10 1012.5S
$$

LMZ867-665-643>646-311100-
LAKE MICHIGAN

STATION/POSITION TIME  TEMP    WIND        PRES    WAVE
                       AIR SEA DIR/SP/G            HT/PER
                 (UTC) (F)     (DEG/KT/KT) (MB)    (FT/S)
CHAMBERS ISLAND  0900   63     190/  6/  9 1014.9S
S GREEN BAY BUOY 1000   64 63  220/ 10/ 14 1017.1
N MID LAKE BUOY  0950   64 65  220/ 12/ 14 1014.5S   2/ 5
NORTHPORT PIER   0900   66     230/  5/ 10 1014.9R
SHEBOYGAN LAKESH 1000   59     200/  4/  4 1016.8F
PORT WASHINGTON  0900   53      CALM  /  1 1017.6
ATWATER BUOY     1000   55 49  180/  4/  4 1018.4R
MILWAUKEE LAKESH 0900   61     180/  4/  5   N/A
S MID LAKE BUOY  0950   68 68  200/  6/  6 1016.9R   0
KENOSHA   LAKESH 1000   62     240/  3/  5 1016.9S
$$

TC  - TEMPERATURE IN CELSIUS
VSB - VISIBILITY IN STATUTE MILES
WCI - WIND CHILL INDEX
HX  - HEAT INDEX



USA.gov is the U.S. government's official web portal to all federal, state and local government web resources and services.